Time,TemperatureF,DewpointF,PressureIn,WindDirection,WindDirectionDegrees,WindSpeedMPH,WindSpeedGustMPH,Humidity,HourlyPrecipIn,Conditions,Clouds,dailyrainin,SolarRadiationWatts/m^2,SoftwareType,DateUTC
2013-05-23 00:02:00,50.8,48.3,29.93,North,355,2.0,10.0,91,0.00,,,0.00,0,Wunderground v.1.15,2013-05-23 05:02:00,
2013-05-23 00:07:00,50.9,48.4,29.93,NNW,346,8.0,10.0,91,0.00,,,0.00,0,Wunderground v.1.15,2013-05-23 05:07:00,
2013-05-23 00:12:00,50.9,48.4,29.93,NNW,347,4.0,6.0,91,0.00,,,0.00,0,Wunderground v.1.15,2013-05-23 05:12:00,
2013-05-23 00:17:00,50.9,48.4,29.93,NNW,340,5.0,8.0,91,0.00,,,0.00,0,Wunderground v.1.15,2013-05-23 05:17:00,
2013-05-23 00:22:00,50.9,48.4,29.94,North,355,7.0,11.0,91,0.00,,,0.00,0,Wunderground v.1.15,2013-05-23 05:22:00,
2013-05-23 00:28:00,50.9,48.4,29.94,NNE,17,6.0,13.0,91,0.00,,,0.00,0,Wunderground v.1.15,2013-05-23 05:28:00,
2013-05-23 00:33:00,50.9,48.4,29.94,NNW,345,9.0,9.0,91,0.00,,,0.00,0,Wunderground v.1.15,2013-05-23 05:33:00,
2013-05-23 00:38:00,51.0,48.5,29.94,North,355,9.0,9.0,91,0.00,,,0.00,0,Wunderground v.1.15,2013-05-23 05:38:00,
2013-05-23 00:43:00,51.0,48.2,29.94,NNE,13,4.0,10.0,90,0.00,,,0.00,0,Wunderground v.1.15,2013-05-23 05:43:00,
2013-05-23 00:48:00,51.0,48.2,29.94,North,11,5.0,11.0,90,0.00,,,0.00,0,Wunderground v.1.15,2013-05-23 05:48:00,
2013-05-23 00:54:00,51.0,48.2,29.94,North,355,4.0,9.0,90,0.00,,,0.00,0,Wunderground v.1.15,2013-05-23 05:54:00,
2013-05-23 00:59:00,51.0,48.2,29.94,North,5,7.0,9.0,90,0.00,,,0.00,0,Wunderground v.1.15,2013-05-23 05:59:00,
2013-05-23 01:04:00,51.0,48.2,29.94,North,355,4.0,9.0,90,0.00,,,0.00,0,Wunderground v.1.15,2013-05-23 06:04:00,
2013-05-23 01:09:00,50.9,48.1,29.94,North,355,11.0,11.0,90,0.00,,,0.00,0,Wunderground v.1.15,2013-05-23 06:09:00,
2013-05-23 01:15:00,50.8,48.0,29.94,NNW,329,6.0,7.0,90,0.00,,,0.00,0,Wunderground v.1.15,2013-05-23 06:15:00,
2013-05-23 01:20:00,50.8,48.0,29.95,NNW,345,8.0,8.0,90,0.00,,,0.00,0,Wunderground v.1.15,2013-05-23 06:20:00,
2013-05-23 01:25:00,50.9,48.1,29.94,NNW,339,10.0,10.0,90,0.00,,,0.00,0,Wunderground v.1.15,2013-05-23 06:25:00,
2013-05-23 01:30:00,50.9,48.1,29.95,NNE,13,5.0,6.0,90,0.00,,,0.00,0,Wunderground v.1.15,2013-05-23 06:30:00,
2013-05-23 01:35:00,50.9,48.1,29.95,NNW,327,7.0,7.0,90,0.00,,,0.00,0,Wunderground v.1.15,2013-05-23 06:35:00,
2013-05-23 01:40:00,50.9,48.1,29.95,NNW,336,6.0,6.0,90,0.00,,,0.00,0,Wunderground v.1.15,2013-05-23 06:40:00,
2013-05-23 01:46:00,50.8,48.0,29.95,NNW,348,5.0,7.0,90,0.00,,,0.00,0,Wunderground v.1.15,2013-05-23 06:46:00,
2013-05-23 01:51:00,50.8,48.0,29.95,North,360,5.0,5.0,90,0.00,,,0.00,0,Wunderground v.1.15,2013-05-23 06:51:00,
2013-05-23 01:56:00,50.9,48.1,29.94,NNW,336,4.0,5.0,90,0.00,,,0.00,0,Wunderground v.1.15,2013-05-23 06:56:00,
2013-05-23 02:01:00,50.9,48.1,29.95,NNW,340,6.0,6.0,90,0.00,,,0.00,0,Wunderground v.1.15,2013-05-23 07:01:00,
2013-05-23 02:06:00,51.0,48.2,29.95,NNW,328,4.0,9.0,90,0.00,,,0.00,0,Wunderground v.1.15,2013-05-23 07:06:00,
2013-05-23 02:11:00,51.0,48.2,29.95,NNW,335,7.0,9.0,90,0.00,,,0.00,0,Wunderground v.1.15,2013-05-23 07:11:00,
2013-05-23 02:16:00,50.9,48.1,29.95,NW,324,6.0,9.0,90,0.00,,,0.00,0,Wunderground v.1.15,2013-05-23 07:16:00,
2013-05-23 02:21:00,50.8,48.0,29.95,North,349,4.0,7.0,90,0.00,,,0.00,0,Wunderground v.1.15,2013-05-23 07:21:00,
2013-05-23 02:26:00,50.8,48.0,29.95,NNW,327,4.0,7.0,90,0.00,,,0.00,0,Wunderground v.1.15,2013-05-23 07:26:00,
2013-05-23 02:31:00,50.9,48.1,29.95,NW,317,5.0,5.0,90,0.00,,,0.00,0,Wunderground v.1.15,2013-05-23 07:31:00,
2013-05-23 02:36:00,50.9,48.1,29.95,NW,325,1.0,8.0,90,0.00,,,0.00,0,Wunderground v.1.15,2013-05-23 07:36:00,
2013-05-23 02:41:00,51.0,48.2,29.95,NW,319,2.0,4.0,90,0.00,,,0.00,0,Wunderground v.1.15,2013-05-23 07:41:00,
2013-05-23 02:46:00,51.0,48.2,29.96,NW,324,2.0,8.0,90,0.00,,,0.00,0,Wunderground v.1.15,2013-05-23 07:46:00,
2013-05-23 02:51:00,51.0,48.2,29.96,NW,308,6.0,7.0,90,0.00,,,0.00,0,Wunderground v.1.15,2013-05-23 07:51:00,
2013-05-23 02:56:00,51.0,48.2,29.96,NNW,340,6.0,8.0,90,0.00,,,0.00,0,Wunderground v.1.15,2013-05-23 07:56:00,
2013-05-23 03:01:00,51.0,48.2,29.96,NNW,327,6.0,6.0,90,0.00,,,0.00,0,Wunderground v.1.15,2013-05-23 08:01:00,
2013-05-23 03:06:00,51.0,48.2,29.96,NW,315,3.0,9.0,90,0.00,,,0.00,0,Wunderground v.1.15,2013-05-23 08:06:00,
2013-05-23 03:11:00,51.0,48.2,29.96,NW,310,3.0,10.0,90,0.00,,,0.00,0,Wunderground v.1.15,2013-05-23 08:11:00,
2013-05-23 03:16:00,50.9,48.1,29.96,NW,323,4.0,13.0,90,0.00,,,0.00,0,Wunderground v.1.15,2013-05-23 08:16:00,
2013-05-23 03:21:00,50.8,48.0,29.96,NNW,329,5.0,9.0,90,0.00,,,0.00,0,Wunderground v.1.15,2013-05-23 08:21:00,
2013-05-23 03:26:00,50.7,47.9,29.96,North,355,12.0,12.0,90,0.00,,,0.00,0,Wunderground v.1.15,2013-05-23 08:26:00,
2013-05-23 03:31:00,50.4,47.6,29.97,NNW,345,6.0,9.0,90,0.00,,,0.00,0,Wunderground v.1.15,2013-05-23 08:31:00,
2013-05-23 03:36:00,50.2,47.4,29.97,NNW,327,8.0,11.0,90,0.00,,,0.00,0,Wunderground v.1.15,2013-05-23 08:36:00,
2013-05-23 03:41:00,49.8,47.0,29.98,NNW,336,8.0,13.0,90,0.00,,,0.00,0,Wunderground v.1.15,2013-05-23 08:41:00,
2013-05-23 03:46:00,49.5,46.7,29.98,NNW,335,5.0,13.0,90,0.00,,,0.00,0,Wunderground v.1.15,2013-05-23 08:46:00,
2013-05-23 03:51:00,49.1,46.3,29.98,North,355,8.0,14.0,90,0.00,,,0.00,0,Wunderground v.1.15,2013-05-23 08:51:00,
2013-05-23 03:56:00,48.8,46.0,29.98,North,355,8.0,14.0,90,0.00,,,0.00,0,Wunderground v.1.15,2013-05-23 08:56:00,
2013-05-23 04:01:00,48.7,45.9,29.98,NNE,15,8.0,11.0,90,0.00,,,0.00,0,Wunderground v.1.15,2013-05-23 09:01:00,
2013-05-23 04:06:00,48.5,45.7,29.98,North,11,2.0,11.0,90,0.00,,,0.00,0,Wunderground v.1.15,2013-05-23 09:06:00,
2013-05-23 04:11:00,48.3,45.5,29.98,North,11,6.0,10.0,90,0.00,,,0.00,0,Wunderground v.1.15,2013-05-23 09:11:00,
2013-05-23 04:16:00,48.2,45.4,29.99,North,355,5.0,12.0,90,0.00,,,0.00,0,Wunderground v.1.15,2013-05-23 09:16:00,
2013-05-23 04:21:00,48.0,45.2,29.99,North,351,4.0,11.0,90,0.00,,,0.00,0,Wunderground v.1.15,2013-05-23 09:21:00,
2013-05-23 04:26:00,47.8,45.0,29.99,North,5,5.0,11.0,90,0.00,,,0.00,0,Wunderground v.1.15,2013-05-23 09:26:00,
2013-05-23 04:31:00,47.5,44.7,29.99,North,5,5.0,10.0,90,0.00,,,0.00,0,Wunderground v.1.15,2013-05-23 09:31:00,
2013-05-23 04:36:00,47.4,44.6,30.00,NNW,338,10.0,10.0,90,0.00,,,0.00,0,Wunderground v.1.15,2013-05-23 09:36:00,
2013-05-23 04:41:00,47.2,44.4,30.00,North,11,7.0,9.0,90,0.00,,,0.00,0,Wunderground v.1.15,2013-05-23 09:41:00,
2013-05-23 04:46:00,47.0,44.2,30.00,North,5,6.0,10.0,90,0.00,,,0.00,0,Wunderground v.1.15,2013-05-23 09:46:00,
2013-05-23 04:51:00,46.9,44.1,30.00,North,350,8.0,12.0,90,0.00,,,0.00,0,Wunderground v.1.15,2013-05-23 09:51:00,
2013-05-23 04:56:00,46.8,44.3,30.00,North,355,7.0,12.0,91,0.00,,,0.00,0,Wunderground v.1.15,2013-05-23 09:56:00,
2013-05-23 05:01:00,46.7,44.2,30.00,North,5,3.0,8.0,91,0.00,,,0.00,0,Wunderground v.1.15,2013-05-23 10:01:00,
2013-05-23 05:06:00,46.6,44.1,30.01,NNE,20,4.0,10.0,91,0.00,,,0.00,0,Wunderground v.1.15,2013-05-23 10:06:00,
2013-05-23 05:11:00,46.4,43.9,30.01,NNE,12,6.0,9.0,91,0.00,,,0.00,0,Wunderground v.1.15,2013-05-23 10:11:00,
2013-05-23 05:16:00,46.2,43.4,30.01,North,11,6.0,9.0,90,0.00,,,0.00,0,Wunderground v.1.15,2013-05-23 10:16:00,
2013-05-23 05:21:00,46.1,43.6,30.01,NNE,14,5.0,9.0,91,0.00,,,0.00,0,Wunderground v.1.15,2013-05-23 10:21:00,
2013-05-23 05:26:00,46.0,43.5,30.01,NNW,345,6.0,9.0,91,0.00,,,0.00,0,Wunderground v.1.15,2013-05-23 10:26:00,
2013-05-23 05:32:00,45.9,43.4,30.02,North,10,5.0,8.0,91,0.00,,,0.00,0,Wunderground v.1.15,2013-05-23 10:32:00,
2013-05-23 05:37:00,45.8,43.3,30.02,NNE,15,6.0,8.0,91,0.00,,,0.00,0,Wunderground v.1.15,2013-05-23 10:37:00,
2013-05-23 05:42:00,46.0,43.5,30.03,North,355,8.0,9.0,91,0.00,,,0.00,0,Wunderground v.1.15,2013-05-23 10:42:00,
2013-05-23 05:47:00,46.2,43.7,30.03,North,5,8.0,10.0,91,0.00,,,0.00,0,Wunderground v.1.15,2013-05-23 10:47:00,
2013-05-23 05:52:00,46.5,44.0,30.03,NNW,345,6.0,8.0,91,0.00,,,0.00,0,Wunderground v.1.15,2013-05-23 10:52:00,
2013-05-23 05:57:00,46.8,44.3,30.03,NNE,18,8.0,11.0,91,0.00,,,0.00,0,Wunderground v.1.15,2013-05-23 10:57:00,
2013-05-23 06:02:00,46.9,44.4,30.03,North,5,5.0,8.0,91,0.00,,,0.00,0,Wunderground v.1.15,2013-05-23 11:02:00,
2013-05-23 06:07:00,47.0,44.5,30.04,North,5,5.0,11.0,91,0.00,,,0.00,0,Wunderground v.1.15,2013-05-23 11:07:00,
2013-05-23 06:12:00,47.2,44.7,30.04,North,360,4.0,10.0,91,0.00,,,0.00,0,Wunderground v.1.15,2013-05-23 11:12:00,
2013-05-23 06:17:00,47.2,44.7,30.04,NNE,29,2.0,12.0,91,0.00,,,0.00,0,Wunderground v.1.15,2013-05-23 11:17:00,
2013-05-23 06:22:00,47.3,44.5,30.04,NNE,12,3.0,8.0,90,0.00,,,0.00,5,Wunderground v.1.15,2013-05-23 11:22:00,
2013-05-23 06:27:00,47.4,44.6,30.04,North,350,8.0,11.0,90,0.00,,,0.00,11,Wunderground v.1.15,2013-05-23 11:27:00,
2013-05-23 06:32:00,47.4,44.6,30.04,North,5,5.0,9.0,90,0.00,,,0.00,14,Wunderground v.1.15,2013-05-23 11:32:00,
2013-05-23 06:37:00,47.4,44.6,30.05,NNE,20,3.0,10.0,90,0.00,,,0.00,16,Wunderground v.1.15,2013-05-23 11:37:00,
2013-05-23 06:42:00,47.5,44.7,30.05,North,5,5.0,8.0,90,0.00,,,0.00,18,Wunderground v.1.15,2013-05-23 11:42:00,
2013-05-23 06:47:00,47.5,44.7,30.05,NNE,30,9.0,12.0,90,0.00,,,0.00,21,Wunderground v.1.15,2013-05-23 11:47:00,
2013-05-23 06:52:00,47.4,44.6,30.06,North,9,4.0,10.0,90,0.00,,,0.00,23,Wunderground v.1.15,2013-05-23 11:52:00,
2013-05-23 06:57:00,47.5,44.7,30.06,North,9,8.0,10.0,90,0.00,,,0.00,35,Wunderground v.1.15,2013-05-23 11:57:00,
2013-05-23 07:02:00,47.6,44.8,30.06,North,355,7.0,9.0,90,0.00,,,0.00,37,Wunderground v.1.15,2013-05-23 12:02:00,
2013-05-23 07:07:00,47.6,44.8,30.06,North,355,9.0,14.0,90,0.00,,,0.00,39,Wunderground v.1.15,2013-05-23 12:07:00,
2013-05-23 07:12:00,47.6,44.8,30.06,NNE,22,8.0,12.0,90,0.00,,,0.00,54,Wunderground v.1.15,2013-05-23 12:12:00,
2013-05-23 07:17:00,47.7,44.9,30.06,North,10,8.0,12.0,90,0.00,,,0.00,74,Wunderground v.1.15,2013-05-23 12:17:00,
2013-05-23 07:22:00,47.8,45.0,30.07,NNW,339,5.0,9.0,90,0.00,,,0.00,63,Wunderground v.1.15,2013-05-23 12:22:00,
2013-05-23 07:27:00,47.9,45.1,30.07,North,5,11.0,11.0,90,0.00,,,0.00,70,Wunderground v.1.15,2013-05-23 12:27:00,
2013-05-23 07:32:00,47.8,44.7,30.07,NNE,26,7.0,7.0,89,0.00,,,0.00,104,Wunderground v.1.15,2013-05-23 12:32:00,
2013-05-23 07:37:00,47.9,44.8,30.06,NNE,24,7.0,12.0,89,0.00,,,0.00,111,Wunderground v.1.15,2013-05-23 12:37:00,
2013-05-23 08:22:00,48.7,45.3,30.10,NNE,28,4.0,5.0,88,0.00,,,0.00,193,Wunderground v.1.15,2013-05-23 13:22:00,
2013-05-23 08:27:00,48.8,45.4,30.10,North,360,7.0,10.0,88,0.00,,,0.00,230,Wunderground v.1.15,2013-05-23 13:27:00,
2013-05-23 08:32:00,49.2,45.8,30.10,ENE,71,5.0,9.0,88,0.00,,,0.00,302,Wunderground v.1.15,2013-05-23 13:32:00,
2013-05-23 08:37:00,49.6,46.2,30.09,NE,45,6.0,12.0,88,0.00,,,0.00,265,Wunderground v.1.15,2013-05-23 13:37:00,
2013-05-23 08:42:00,49.9,46.5,30.09,NNE,15,7.0,11.0,88,0.00,,,0.00,512,Wunderground v.1.15,2013-05-23 13:42:00,
2013-05-23 08:47:00,50.6,46.9,30.09,NE,44,8.0,12.0,87,0.00,,,0.00,420,Wunderground v.1.15,2013-05-23 13:47:00,
2013-05-23 08:52:00,50.7,46.7,30.09,NNE,25,6.0,11.0,86,0.00,,,0.00,482,Wunderground v.1.15,2013-05-23 13:52:00,
2013-05-23 08:57:00,51.0,47.0,30.10,NNE,24,5.0,13.0,86,0.00,,,0.00,508,Wunderground v.1.15,2013-05-23 13:57:00,
2013-05-23 09:02:00,51.3,46.9,30.10,NE,48,8.0,13.0,85,0.00,,,0.00,554,Wunderground v.1.15,2013-05-23 14:02:00,
2013-05-23 09:07:00,51.7,47.0,30.09,NE,55,8.0,14.0,84,0.00,,,0.00,519,Wunderground v.1.15,2013-05-23 14:07:00,
2013-05-23 09:12:00,52.0,47.3,30.09,NNE,27,9.0,15.0,84,0.00,,,0.00,522,Wunderground v.1.15,2013-05-23 14:12:00,
2013-05-23 09:17:00,52.1,47.4,30.09,NNE,31,10.0,15.0,84,0.00,,,0.00,538,Wunderground v.1.15,2013-05-23 14:17:00,
2013-05-23 09:22:00,52.1,46.8,30.10,NNE,30,8.0,13.0,82,0.00,,,0.00,543,Wunderground v.1.15,2013-05-23 14:22:00,
2013-05-23 09:27:00,52.6,47.6,30.10,NE,55,8.0,13.0,83,0.00,,,0.00,575,Wunderground v.1.15,2013-05-23 14:27:00,
2013-05-23 09:32:00,52.9,47.6,30.10,NNE,31,7.0,12.0,82,0.00,,,0.00,584,Wunderground v.1.15,2013-05-23 14:32:00,
2013-05-23 09:37:00,53.1,47.7,30.10,East,81,11.0,14.0,82,0.00,,,0.00,598,Wunderground v.1.15,2013-05-23 14:37:00,
2013-05-23 09:42:00,53.3,47.6,30.10,NNE,22,7.0,13.0,81,0.00,,,0.00,608,Wunderground v.1.15,2013-05-23 14:42:00,
2013-05-23 09:47:00,53.6,47.9,30.10,NNE,17,11.0,15.0,81,0.00,,,0.00,594,Wunderground v.1.15,2013-05-23 14:47:00,
2013-05-23 09:52:00,54.1,48.1,30.10,NE,49,7.0,12.0,80,0.00,,,0.00,638,Wunderground v.1.15,2013-05-23 14:52:00,
2013-05-23 09:57:00,54.0,47.6,30.11,ENE,59,8.0,12.0,79,0.00,,,0.00,650,Wunderground v.1.15,2013-05-23 14:57:00,
2013-05-23 10:02:00,54.4,48.0,30.11,NE,34,10.0,11.0,79,0.00,,,0.00,664,Wunderground v.1.15,2013-05-23 15:02:00,
2013-05-23 10:07:00,54.7,48.3,30.12,NNE,26,7.0,11.0,79,0.00,,,0.00,680,Wunderground v.1.15,2013-05-23 15:07:00,
2013-05-23 10:12:00,55.1,48.4,30.12,NNE,33,6.0,9.0,78,0.00,,,0.00,693,Wunderground v.1.15,2013-05-23 15:12:00,
2013-05-23 10:17:00,55.3,48.2,30.12,NE,36,8.0,12.0,77,0.00,,,0.00,705,Wunderground v.1.15,2013-05-23 15:17:00,
2013-05-23 10:22:00,55.5,48.1,30.12,NE,45,5.0,10.0,76,0.00,,,0.00,717,Wunderground v.1.15,2013-05-23 15:22:00,
2013-05-23 10:27:00,55.8,48.3,30.12,ENE,71,8.0,11.0,76,0.00,,,0.00,740,Wunderground v.1.15,2013-05-23 15:27:00,
2013-05-23 10:32:00,55.8,48.7,30.12,ENE,58,4.0,9.0,77,0.00,,,0.00,745,Wunderground v.1.15,2013-05-23 15:32:00,
2013-05-23 10:37:00,56.4,49.3,30.11,NE,38,7.0,9.0,77,0.00,,,0.00,756,Wunderground v.1.15,2013-05-23 15:37:00,
2013-05-23 10:42:00,56.7,48.9,30.11,NNE,22,8.0,9.0,75,0.00,,,0.00,770,Wunderground v.1.15,2013-05-23 15:42:00,
2013-05-23 10:47:00,57.1,49.2,30.11,NNE,30,6.0,11.0,75,0.00,,,0.00,782,Wunderground v.1.15,2013-05-23 15:47:00,
2013-05-23 10:52:00,57.3,48.7,30.11,East,83,13.0,13.0,73,0.00,,,0.00,796,Wunderground v.1.15,2013-05-23 15:52:00,
2013-05-23 10:57:00,57.4,49.2,30.10,ENE,63,9.0,17.0,74,0.00,,,0.00,807,Wunderground v.1.15,2013-05-23 15:57:00,
2013-05-23 11:02:00,58.0,49.4,30.10,NNE,30,13.0,15.0,73,0.00,,,0.00,819,Wunderground v.1.15,2013-05-23 16:02:00,
2013-05-23 11:07:00,58.3,48.9,30.09,NE,37,12.0,15.0,71,0.00,,,0.00,826,Wunderground v.1.15,2013-05-23 16:07:00,
2013-05-23 11:12:00,58.3,48.2,30.09,NE,54,8.0,19.0,69,0.00,,,0.00,840,Wunderground v.1.15,2013-05-23 16:12:00,
2013-05-23 11:17:00,58.7,48.6,30.09,NE,44,16.0,19.0,69,0.00,,,0.00,851,Wunderground v.1.15,2013-05-23 16:17:00,
2013-05-23 11:22:00,59.4,50.0,30.08,NNE,24,12.0,17.0,71,0.00,,,0.00,863,Wunderground v.1.15,2013-05-23 16:22:00,
2013-05-23 11:27:00,59.5,47.7,30.08,NNE,33,10.0,17.0,65,0.00,,,0.00,874,Wunderground v.1.15,2013-05-23 16:27:00,
2013-05-23 11:32:00,60.0,48.6,30.08,NE,46,15.0,17.0,66,0.00,,,0.00,882,Wunderground v.1.15,2013-05-23 16:32:00,
2013-05-23 11:37:00,60.1,47.9,30.08,ENE,68,11.0,19.0,64,0.00,,,0.00,891,Wunderground v.1.15,2013-05-23 16:37:00,
2013-05-23 11:42:00,60.0,46.9,30.08,NE,49,12.0,21.0,62,0.00,,,0.00,896,Wunderground v.1.15,2013-05-23 16:42:00,
2013-05-23 11:47:00,60.3,46.8,30.08,NE,39,9.0,21.0,61,0.00,,,0.00,904,Wunderground v.1.15,2013-05-23 16:47:00,
2013-05-23 11:52:00,60.4,46.4,30.08,NNE,26,12.0,18.0,60,0.00,,,0.00,912,Wunderground v.1.15,2013-05-23 16:52:00,
2013-05-23 11:57:00,60.6,46.6,30.08,ENE,67,9.0,22.0,60,0.00,,,0.00,921,Wunderground v.1.15,2013-05-23 16:57:00,
2013-05-23 12:02:00,60.9,46.5,30.08,ENE,63,15.0,20.0,59,0.00,,,0.00,926,Wunderground v.1.15,2013-05-23 17:02:00,
2013-05-23 12:07:00,61.1,47.5,30.08,NNE,17,10.0,20.0,61,0.00,,,0.00,933,Wunderground v.1.15,2013-05-23 17:07:00,
2013-05-23 12:12:00,61.3,46.4,30.08,NE,42,11.0,16.0,58,0.00,,,0.00,944,Wunderground v.1.15,2013-05-23 17:12:00,
2013-05-23 12:17:00,61.8,46.9,30.08,NNE,32,11.0,23.0,58,0.00,,,0.00,947,Wunderground v.1.15,2013-05-23 17:17:00,
2013-05-23 12:22:00,62.3,46.9,30.08,NE,42,11.0,17.0,57,0.00,,,0.00,953,Wunderground v.1.15,2013-05-23 17:22:00,
2013-05-23 12:27:00,62.4,46.5,30.08,East,88,14.0,23.0,56,0.00,,,0.00,960,Wunderground v.1.15,2013-05-23 17:27:00,
2013-05-23 12:32:00,62.8,46.4,30.08,ENE,61,15.0,20.0,55,0.00,,,0.00,962,Wunderground v.1.15,2013-05-23 17:32:00,
2013-05-23 12:37:00,63.0,47.5,30.08,NE,54,12.0,22.0,57,0.00,,,0.00,969,Wunderground v.1.15,2013-05-23 17:37:00,
2013-05-23 12:42:00,62.9,44.5,30.08,East,90,16.0,23.0,51,0.00,,,0.00,974,Wunderground v.1.15,2013-05-23 17:42:00,
2013-05-23 12:47:00,63.1,46.2,30.07,ENE,76,21.0,24.0,54,0.00,,,0.00,976,Wunderground v.1.15,2013-05-23 17:47:00,
2013-05-23 12:52:00,63.0,46.1,30.07,East,86,25.0,25.0,54,0.00,,,0.00,977,Wunderground v.1.15,2013-05-23 17:52:00,
2013-05-23 12:57:00,62.8,46.9,30.07,NE,36,19.0,28.0,56,0.00,,,0.00,983,Wunderground v.1.15,2013-05-23 17:57:00,
2013-05-23 13:02:00,63.3,46.4,30.07,NE,34,15.0,22.0,54,0.00,,,0.00,984,Wunderground v.1.15,2013-05-23 18:02:00,
2013-05-23 13:07:00,63.3,47.3,30.07,NE,50,13.0,28.0,56,0.00,,,0.00,988,Wunderground v.1.15,2013-05-23 18:07:00,
2013-05-23 13:12:00,63.8,45.8,30.07,NE,45,16.0,23.0,52,0.00,,,0.00,990,Wunderground v.1.15,2013-05-23 18:12:00,
2013-05-23 13:17:00,63.9,46.4,30.07,ENE,64,13.0,25.0,53,0.00,,,0.00,993,Wunderground v.1.15,2013-05-23 18:17:00,
2013-05-23 13:22:00,64.2,46.7,30.07,NE,45,13.0,22.0,53,0.00,,,0.00,993,Wunderground v.1.15,2013-05-23 18:22:00,
2013-05-23 13:27:00,64.4,46.4,30.07,ENE,68,10.0,24.0,52,0.00,,,0.00,991,Wunderground v.1.15,2013-05-23 18:27:00,
2013-05-23 13:32:00,64.7,48.6,30.07,East,83,22.0,27.0,56,0.00,,,0.00,993,Wunderground v.1.15,2013-05-23 18:32:00,
2013-05-23 13:37:00,64.5,46.5,30.08,East,86,17.0,31.0,52,0.00,,,0.00,991,Wunderground v.1.15,2013-05-23 18:37:00,
2013-05-23 13:43:00,64.3,46.8,30.08,ENE,63,12.0,24.0,53,0.00,,,0.00,995,Wunderground v.1.15,2013-05-23 18:43:00,
2013-05-23 13:48:00,64.8,47.8,30.07,ENE,68,16.0,24.0,54,0.00,,,0.00,991,Wunderground v.1.15,2013-05-23 18:48:00,
2013-05-23 13:53:00,64.7,45.1,30.08,NE,38,14.0,25.0,49,0.00,,,0.00,991,Wunderground v.1.15,2013-05-23 18:53:00,
2013-05-23 13:58:00,64.5,45.4,30.07,NNE,24,10.0,25.0,50,0.00,,,0.00,986,Wunderground v.1.15,2013-05-23 18:58:00,
2013-05-23 14:03:00,65.1,44.9,30.08,East,82,13.0,22.0,48,0.00,,,0.00,984,Wunderground v.1.15,2013-05-23 19:03:00,
2013-05-23 14:08:00,65.0,45.4,30.07,ENE,65,23.0,27.0,49,0.00,,,0.00,986,Wunderground v.1.15,2013-05-23 19:08:00,
2013-05-23 14:13:00,65.2,46.1,30.07,ENE,77,13.0,24.0,50,0.00,,,0.00,983,Wunderground v.1.15,2013-05-23 19:13:00,
2013-05-23 14:18:00,65.3,46.7,30.07,NE,50,8.0,26.0,51,0.00,,,0.00,976,Wunderground v.1.15,2013-05-23 19:18:00,
2013-05-23 14:23:00,65.3,45.6,30.07,NE,48,10.0,16.0,49,0.00,,,0.00,976,Wunderground v.1.15,2013-05-23 19:23:00,
2013-05-23 14:28:00,65.9,48.3,30.08,ENE,63,25.0,26.0,53,0.00,,,0.00,976,Wunderground v.1.15,2013-05-23 19:28:00,
2013-05-23 14:33:00,65.7,44.3,30.07,ENE,58,19.0,24.0,46,0.00,,,0.00,963,Wunderground v.1.15,2013-05-23 19:33:00,
2013-05-23 14:38:00,65.7,45.5,30.07,NE,36,7.0,24.0,48,0.00,,,0.00,958,Wunderground v.1.15,2013-05-23 19:38:00,
2013-05-23 14:43:00,65.9,45.6,30.07,NE,44,11.0,19.0,48,0.00,,,0.00,962,Wunderground v.1.15,2013-05-23 19:43:00,
2013-05-23 14:48:00,66.2,46.5,30.07,ENE,61,12.0,23.0,49,0.00,,,0.00,951,Wunderground v.1.15,2013-05-23 19:48:00,
2013-05-23 14:53:00,66.3,46.6,30.07,East,99,15.0,24.0,49,0.00,,,0.00,7,Wunderground v.1.15,2013-05-23 19:53:00,
2013-05-23 14:58:00,66.4,46.7,30.07,ENE,60,19.0,24.0,49,0.00,,,0.00,944,Wunderground v.1.15,2013-05-23 19:58:00,
2013-05-23 15:03:00,66.4,47.2,30.07,ESE,104,5.0,16.0,50,0.00,,,0.00,930,Wunderground v.1.15,2013-05-23 20:03:00,
2013-05-23 15:08:00,66.7,46.9,30.07,NE,53,18.0,22.0,49,0.00,,,0.00,928,Wunderground v.1.15,2013-05-23 20:08:00,
2013-05-23 15:13:00,66.6,48.4,30.07,NE,53,16.0,22.0,52,0.00,,,0.00,926,Wunderground v.1.15,2013-05-23 20:13:00,
2013-05-23 15:18:00,66.4,48.2,30.07,East,99,13.0,25.0,52,0.00,,,0.00,912,Wunderground v.1.15,2013-05-23 20:18:00,
2013-05-23 15:23:00,66.3,46.0,30.07,NE,55,12.0,19.0,48,0.00,,,0.00,909,Wunderground v.1.15,2013-05-23 20:23:00,
2013-05-23 15:28:00,66.5,45.6,30.07,East,88,22.0,27.0,47,0.00,,,0.00,889,Wunderground v.1.15,2013-05-23 20:28:00,
2013-05-23 15:33:00,66.5,45.1,30.07,NE,42,5.0,17.0,46,0.00,,,0.00,886,Wunderground v.1.15,2013-05-23 20:33:00,
2013-05-23 15:38:00,67.0,44.4,30.07,ENE,70,19.0,22.0,44,0.00,,,0.00,879,Wunderground v.1.15,2013-05-23 20:38:00,
2013-05-23 15:43:00,67.0,44.4,30.07,ENE,70,11.0,15.0,44,0.00,,,0.00,870,Wunderground v.1.15,2013-05-23 20:43:00,
2013-05-23 15:48:00,67.2,46.3,30.06,NE,54,11.0,21.0,47,0.00,,,0.00,863,Wunderground v.1.15,2013-05-23 20:48:00,
2013-05-23 15:53:00,67.1,44.4,30.06,East,89,13.0,18.0,44,0.00,,,0.00,856,Wunderground v.1.15,2013-05-23 20:53:00,
2013-05-23 15:58:00,67.1,45.0,30.06,East,94,17.0,24.0,45,0.00,,,0.00,840,Wunderground v.1.15,2013-05-23 20:58:00,
2013-05-23 16:03:00,66.9,46.6,30.06,East,100,13.0,23.0,48,0.00,,,0.00,19,Wunderground v.1.15,2013-05-23 21:03:00,
2013-05-23 16:08:00,66.9,45.4,30.05,NE,49,8.0,23.0,46,0.00,,,0.00,819,Wunderground v.1.15,2013-05-23 21:08:00,
2013-05-23 16:13:00,67.1,46.2,30.05,ENE,66,13.0,22.0,47,0.00,,,0.00,810,Wunderground v.1.15,2013-05-23 21:13:00,
2013-05-23 16:18:00,67.0,45.5,30.05,ENE,69,5.0,22.0,46,0.00,,,0.00,796,Wunderground v.1.15,2013-05-23 21:18:00,
2013-05-23 16:23:00,67.5,46.6,30.05,East,99,17.0,18.0,47,0.00,,,0.00,779,Wunderground v.1.15,2013-05-23 21:23:00,
2013-05-23 16:28:00,67.2,46.8,30.05,East,85,17.0,24.0,48,0.00,,,0.00,772,Wunderground v.1.15,2013-05-23 21:28:00,
2013-05-23 16:33:00,67.2,46.3,30.05,ESE,112,13.0,18.0,47,0.00,,,0.00,758,Wunderground v.1.15,2013-05-23 21:33:00,
2013-05-23 16:38:00,67.4,46.5,30.05,East,80,20.0,26.0,47,0.00,,,0.00,738,Wunderground v.1.15,2013-05-23 21:38:00,
2013-05-23 16:43:00,67.3,47.5,30.05,East,94,14.0,18.0,49,0.00,,,0.00,737,Wunderground v.1.15,2013-05-23 21:43:00,
2013-05-23 16:48:00,67.4,45.3,30.05,ENE,71,17.0,23.0,45,0.00,,,0.00,715,Wunderground v.1.15,2013-05-23 21:48:00,
2013-05-23 16:53:00,67.5,46.6,30.05,East,84,18.0,19.0,47,0.00,,,0.00,700,Wunderground v.1.15,2013-05-23 21:53:00,
2013-05-23 16:58:00,67.3,48.0,30.05,ENE,77,14.0,25.0,50,0.00,,,0.00,686,Wunderground v.1.15,2013-05-23 21:58:00,
2013-05-23 17:03:00,67.6,47.8,30.05,ENE,65,11.0,20.0,49,0.00,,,0.00,673,Wunderground v.1.15,2013-05-23 22:03:00,
2013-05-23 17:08:00,67.7,46.7,30.05,East,92,18.0,22.0,47,0.00,,,0.00,659,Wunderground v.1.15,2013-05-23 22:08:00,
2013-05-23 17:13:00,67.7,47.3,30.05,East,93,15.0,24.0,48,0.00,,,0.00,633,Wunderground v.1.15,2013-05-23 22:13:00,
2013-05-23 17:18:00,67.2,47.4,30.04,East,100,15.0,24.0,49,0.00,,,0.00,617,Wunderground v.1.15,2013-05-23 22:18:00,
2013-05-23 17:23:00,67.6,46.6,30.04,SE,130,11.0,22.0,47,0.00,,,0.00,615,Wunderground v.1.15,2013-05-23 22:23:00,
2013-05-23 17:28:00,67.3,46.4,30.04,ENE,73,12.0,22.0,47,0.00,,,0.00,603,Wunderground v.1.15,2013-05-23 22:28:00,
2013-05-23 17:33:00,67.7,46.2,30.04,ENE,61,18.0,19.0,46,0.00,,,0.00,587,Wunderground v.1.15,2013-05-23 22:33:00,
2013-05-23 17:38:00,67.7,46.7,30.04,ESE,102,12.0,22.0,47,0.00,,,0.00,571,Wunderground v.1.15,2013-05-23 22:38:00,
2013-05-23 17:43:00,67.8,45.7,30.04,East,100,15.0,25.0,45,0.00,,,0.00,555,Wunderground v.1.15,2013-05-23 22:43:00,
2013-05-23 17:48:00,67.6,46.6,30.04,East,95,14.0,25.0,47,0.00,,,0.00,543,Wunderground v.1.15,2013-05-23 22:48:00,
2013-05-23 17:53:00,67.6,47.8,30.04,East,88,16.0,22.0,49,0.00,,,0.00,526,Wunderground v.1.15,2013-05-23 22:53:00,
2013-05-23 17:58:00,67.4,45.3,30.04,ESE,111,15.0,22.0,45,0.00,,,0.00,508,Wunderground v.1.15,2013-05-23 22:58:00,
2013-05-23 18:03:00,67.5,47.1,30.04,East,100,9.0,15.0,48,0.00,,,0.00,497,Wunderground v.1.15,2013-05-23 23:03:00,
2013-05-23 18:08:00,67.4,46.5,30.04,SE,126,9.0,24.0,47,0.00,,,0.00,482,Wunderground v.1.15,2013-05-23 23:08:00,
2013-05-23 18:13:00,67.4,47.0,30.04,SSE,149,13.0,17.0,48,0.00,,,0.00,466,Wunderground v.1.15,2013-05-23 23:13:00,
2013-05-23 18:18:00,67.4,45.3,30.04,ESE,106,17.0,23.0,45,0.00,,,0.00,454,Wunderground v.1.15,2013-05-23 23:18:00,
2013-05-23 18:23:00,67.1,45.0,30.04,East,86,9.0,15.0,45,0.00,,,0.00,432,Wunderground v.1.15,2013-05-23 23:23:00,
2013-05-23 18:28:00,67.6,44.3,30.04,ENE,65,12.0,18.0,43,0.00,,,0.00,418,Wunderground v.1.15,2013-05-23 23:28:00,
2013-05-23 18:33:00,67.4,44.7,30.04,ESE,114,12.0,22.0,44,0.00,,,0.00,369,Wunderground v.1.15,2013-05-23 23:33:00,
2013-05-23 18:38:00,66.9,43.7,30.03,ESE,123,16.0,22.0,43,0.00,,,0.00,367,Wunderground v.1.15,2013-05-23 23:38:00,
2013-05-23 18:43:00,66.6,43.4,30.03,ESE,115,14.0,20.0,43,0.00,,,0.00,294,Wunderground v.1.15,2013-05-23 23:43:00,
2013-05-23 18:48:00,66.4,43.8,30.03,East,91,13.0,20.0,44,0.00,,,0.00,299,Wunderground v.1.15,2013-05-23 23:48:00,
2013-05-23 18:53:00,66.3,43.7,30.03,East,80,17.0,17.0,44,0.00,,,0.00,281,Wunderground v.1.15,2013-05-23 23:53:00,
2013-05-23 18:58:00,66.4,44.4,30.03,East,96,17.0,19.0,45,0.00,,,0.00,285,Wunderground v.1.15,2013-05-23 23:58:00,
2013-05-23 19:03:00,66.5,43.3,30.02,East,80,19.0,23.0,43,0.00,,,0.00,309,Wunderground v.1.15,2013-05-24 00:03:00,
2013-05-23 19:08:00,66.5,43.3,30.03,East,96,19.0,25.0,43,0.00,,,0.00,276,Wunderground v.1.15,2013-05-24 00:08:00,
2013-05-23 19:13:00,66.5,44.5,30.02,ESE,103,12.0,18.0,45,0.00,,,0.00,269,Wunderground v.1.15,2013-05-24 00:13:00,
2013-05-23 19:18:00,66.3,44.3,30.02,East,84,17.0,20.0,45,0.00,,,0.00,234,Wunderground v.1.15,2013-05-24 00:18:00,
2013-05-23 19:23:00,66.3,43.7,30.02,East,86,19.0,19.0,44,0.00,,,0.00,237,Wunderground v.1.15,2013-05-24 00:23:00,
2013-05-23 19:28:00,65.9,43.9,30.02,SE,128,13.0,19.0,45,0.00,,,0.00,178,Wunderground v.1.15,2013-05-24 00:28:00,
2013-05-23 19:33:00,65.8,43.9,30.02,East,91,21.0,24.0,45,0.00,,,0.00,137,Wunderground v.1.15,2013-05-24 00:33:00,
2013-05-23 19:38:00,65.3,44.0,30.02,ESE,119,12.0,24.0,46,0.00,,,0.00,107,Wunderground v.1.15,2013-05-24 00:38:00,
2013-05-23 19:43:00,65.0,43.7,30.02,East,80,13.0,19.0,46,0.00,,,0.00,70,Wunderground v.1.15,2013-05-24 00:43:00,
2013-05-23 19:48:00,64.5,43.8,30.02,ESE,110,7.0,19.0,47,0.00,,,0.00,47,Wunderground v.1.15,2013-05-24 00:48:00,
2013-05-23 19:53:00,64.3,43.6,30.02,East,95,11.0,12.0,47,0.00,,,0.00,54,Wunderground v.1.15,2013-05-24 00:53:00,
2013-05-23 19:58:00,64.3,43.6,30.02,East,95,11.0,16.0,47,0.00,,,0.00,47,Wunderground v.1.15,2013-05-24 00:58:00,
2013-05-23 20:03:00,64.1,44.0,30.02,SE,130,8.0,17.0,48,0.00,,,0.00,46,Wunderground v.1.15,2013-05-24 01:03:00,
2013-05-23 20:08:00,64.0,43.4,30.02,ESE,103,15.0,17.0,47,0.00,,,0.00,40,Wunderground v.1.15,2013-05-24 01:08:00,
2013-05-23 20:13:00,64.1,43.4,30.02,ESE,109,7.0,11.0,47,0.00,,,0.00,37,Wunderground v.1.15,2013-05-24 01:13:00,
2013-05-23 20:18:00,63.2,43.2,30.02,SE,124,5.0,14.0,48,0.00,,,0.00,33,Wunderground v.1.15,2013-05-24 01:18:00,
2013-05-23 20:23:00,62.7,43.3,30.02,ESE,112,8.0,14.0,49,0.00,,,0.00,30,Wunderground v.1.15,2013-05-24 01:23:00,
2013-05-23 20:28:00,62.3,43.4,30.02,ESE,115,7.0,14.0,50,0.00,,,0.00,25,Wunderground v.1.15,2013-05-24 01:28:00,
2013-05-23 20:33:00,61.8,43.5,30.02,ESE,110,9.0,12.0,51,0.00,,,0.00,21,Wunderground v.1.15,2013-05-24 01:33:00,
2013-05-23 20:38:00,61.3,43.5,30.03,ESE,116,8.0,12.0,52,0.00,,,0.00,18,Wunderground v.1.15,2013-05-24 01:38:00,
2013-05-23 20:43:00,60.8,43.1,30.03,ESE,103,9.0,13.0,52,0.00,,,0.00,12,Wunderground v.1.15,2013-05-24 01:43:00,
2013-05-23 20:48:00,60.6,43.4,30.03,East,96,10.0,13.0,53,0.00,,,0.00,7,Wunderground v.1.15,2013-05-24 01:48:00,
2013-05-23 20:53:00,60.0,43.3,30.03,East,101,8.0,10.0,54,0.00,,,0.00,0,Wunderground v.1.15,2013-05-24 01:53:00,
2013-05-23 20:58:00,59.6,43.4,30.03,East,96,9.0,11.0,55,0.00,,,0.00,0,Wunderground v.1.15,2013-05-24 01:58:00,
2013-05-23 21:03:00,59.2,44.0,30.02,East,98,7.0,10.0,57,0.00,,,0.00,0,Wunderground v.1.15,2013-05-24 02:03:00,
2013-05-23 21:08:00,58.6,43.4,30.03,East,100,9.0,10.0,57,0.00,,,0.00,0,Wunderground v.1.15,2013-05-24 02:08:00,
2013-05-23 21:13:00,58.1,43.8,30.02,East,96,8.0,9.0,59,0.00,,,0.00,0,Wunderground v.1.15,2013-05-24 02:13:00,
2013-05-23 21:18:00,57.6,43.8,30.02,East,90,7.0,10.0,60,0.00,,,0.00,0,Wunderground v.1.15,2013-05-24 02:18:00,
2013-05-23 21:23:00,56.9,43.6,30.02,East,84,7.0,9.0,61,0.00,,,0.00,0,Wunderground v.1.15,2013-05-24 02:23:00,
2013-05-23 21:28:00,56.6,43.3,30.03,East,90,7.0,10.0,61,0.00,,,0.00,0,Wunderground v.1.15,2013-05-24 02:28:00,
2013-05-23 21:33:00,56.2,43.8,30.03,East,88,8.0,8.0,63,0.00,,,0.00,0,Wunderground v.1.15,2013-05-24 02:33:00,
2013-05-23 21:38:00,55.5,43.9,30.03,East,95,6.0,8.0,65,0.00,,,0.00,0,Wunderground v.1.15,2013-05-24 02:38:00,
2013-05-23 21:43:00,54.9,43.7,30.04,ESE,107,4.0,7.0,66,0.00,,,0.00,0,Wunderground v.1.15,2013-05-24 02:43:00,
2013-05-23 21:48:00,54.3,43.6,30.04,SE,142,6.0,7.0,67,0.00,,,0.00,0,Wunderground v.1.15,2013-05-24 02:48:00,
2013-05-23 21:53:00,53.9,44.0,30.04,ESE,120,5.0,7.0,69,0.00,,,0.00,0,Wunderground v.1.15,2013-05-24 02:53:00,
2013-05-23 21:58:00,53.7,43.8,30.05,ESE,107,5.0,8.0,69,0.00,,,0.00,0,Wunderground v.1.15,2013-05-24 02:58:00,
2013-05-23 22:03:00,53.7,43.8,30.05,ESE,106,5.0,7.0,69,0.00,,,0.00,0,Wunderground v.1.15,2013-05-24 03:03:00,
2013-05-23 22:08:00,53.5,44.0,30.05,East,96,7.0,8.0,70,0.00,,,0.00,0,Wunderground v.1.15,2013-05-24 03:08:00,
2013-05-23 22:13:00,53.1,43.6,30.05,East,94,7.0,8.0,70,0.00,,,0.00,0,Wunderground v.1.15,2013-05-24 03:13:00,
2013-05-23 22:18:00,52.9,43.4,30.05,East,94,7.0,8.0,70,0.00,,,0.00,0,Wunderground v.1.15,2013-05-24 03:18:00,
2013-05-23 22:23:00,52.5,43.4,30.06,East,94,8.0,8.0,71,0.00,,,0.00,0,Wunderground v.1.15,2013-05-24 03:23:00,
2013-05-23 22:28:00,52.3,43.5,30.06,East,94,7.0,8.0,72,0.00,,,0.00,0,Wunderground v.1.15,2013-05-24 03:28:00,
2013-05-23 22:33:00,52.2,43.4,30.06,East,97,8.0,9.0,72,0.00,,,0.00,0,Wunderground v.1.15,2013-05-24 03:33:00,
2013-05-23 22:38:00,52.3,43.5,30.06,East,98,7.0,9.0,72,0.00,,,0.00,0,Wunderground v.1.15,2013-05-24 03:38:00,
2013-05-23 22:43:00,52.3,43.5,30.07,East,96,8.0,9.0,72,0.00,,,0.00,0,Wunderground v.1.15,2013-05-24 03:43:00,
2013-05-23 22:48:00,52.3,43.5,30.07,East,96,7.0,9.0,72,0.00,,,0.00,0,Wunderground v.1.15,2013-05-24 03:48:00,
2013-05-23 22:53:00,52.2,43.8,30.07,East,94,8.0,9.0,73,0.00,,,0.00,0,Wunderground v.1.15,2013-05-24 03:53:00,
2013-05-23 22:58:00,52.1,43.7,30.07,East,93,7.0,9.0,73,0.00,,,0.00,0,Wunderground v.1.15,2013-05-24 03:58:00,
2013-05-23 23:01:00,52.0,43.6,30.07,East,92,7.0,9.0,73,0.00,,,0.00,0,Wunderground v.1.15,2013-05-24 04:01:00,
2013-05-23 23:06:00,52.0,43.6,30.07,East,96,8.0,10.0,73,0.00,,,0.00,0,Wunderground v.1.15,2013-05-24 04:06:00,
2013-05-23 23:11:00,52.3,43.5,30.06,East,92,9.0,10.0,72,0.00,,,0.00,0,Wunderground v.1.15,2013-05-24 04:11:00,
2013-05-23 23:16:00,52.3,43.5,30.06,East,94,9.0,10.0,72,0.00,,,0.00,0,Wunderground v.1.15,2013-05-24 04:16:00,
2013-05-23 23:21:00,52.2,43.4,30.06,East,93,10.0,10.0,72,0.00,,,0.00,0,Wunderground v.1.15,2013-05-24 04:21:00,
2013-05-23 23:26:00,52.3,43.5,30.06,East,90,8.0,11.0,72,0.00,,,0.00,0,Wunderground v.1.15,2013-05-24 04:26:00,
2013-05-23 23:31:00,52.2,43.4,30.06,East,94,8.0,11.0,72,0.00,,,0.00,0,Wunderground v.1.15,2013-05-24 04:31:00,
2013-05-23 23:36:00,52.6,43.5,30.06,East,97,8.0,11.0,71,0.00,,,0.00,0,Wunderground v.1.15,2013-05-24 04:36:00,
2013-05-23 23:41:00,53.4,43.5,30.06,ESE,103,9.0,13.0,69,0.00,,,0.00,0,Wunderground v.1.15,2013-05-24 04:41:00,
2013-05-23 23:46:00,54.2,43.5,30.06,ESE,105,11.0,13.0,67,0.00,,,0.00,0,Wunderground v.1.15,2013-05-24 04:46:00,
2013-05-23 23:51:00,54.4,43.3,30.06,ESE,103,12.0,14.0,66,0.00,,,0.00,0,Wunderground v.1.15,2013-05-24 04:51:00,
2013-05-23 23:56:00,54.2,43.1,30.06,East,101,10.0,14.0,66,0.00,,,0.00,0,Wunderground v.1.15,2013-05-24 04:56:00,